Regional Weather Roundup
Issued by NWS

Home | Current Version | Previous Version | Graphics & Text | Print | Product List | Glossary On
Versions: 1 2 3 4 5 6 7 8 9 10 11 12 13 14 15 16 17 18 19 20 21 22 23 24 25 26 27 28 29 30 31 32 33 34 35 36 37 38 39 40 41 42 43 44 45 46 47 48 49 50
000
ASUS43 KFSD 192210
RWRSD

WEATHER ROUNDUP FOR SOUTH DAKOTA
NATIONAL WEATHER SERVICE SIOUX FALLS SD
400 PM CST SUN FEB 19 2017

NOTE: "FAIR" INDICATES FEW OR NO CLOUDS BELOW 12,000 FEET WITH NO
SIGNIFICANT WEATHER AND/OR OBSTRUCTIONS TO VISIBILITY.


SDZ001>005-009-010-012>017-192300-
NORTHWEST AND NORTH CENTRAL SOUTH DAKOTA

CITY           SKY/WX    TMP DP  RH WIND       PRES   REMARKS
BUFFALO          N/A     67  33  28 SW14      29.37F
FAITH            N/A     60  41  49 SE12      29.46S
MOBRIDGE       MOSUNNY   46  38  73 SE10      29.47F
$$

SDZ012>016-024>037-041>051-057-063-072>074-192300-
SOUTHWEST AND SOUTH CENTRAL SOUTH DAKOTA

CITY           SKY/WX    TMP DP  RH WIND       PRES   REMARKS
RAPID CTY ARPT CLOUDY    69  32  25 SW20      29.47F
PIERRE         CLOUDY    67  38  34 S13       29.49S
CUSTER         CLOUDY    54  28  36 SW10G18   29.57F
ELLSWORTH AFB  CLOUDY    67  32  26 S15       29.47S
PHILIP         MOSUNNY   70  33  25 SW12      29.48F
PINE RIDGE     CLOUDY    59  35  40 S10       29.55S
SPEARFISH      FAIR      66  30  26 SW14G24   29.48S
WINNER         FAIR      72  39  30 S20G26    29.55S
$$

SDZ004>011-016>023-039-040-192300-
NORTHEAST SOUTH DAKOTA

CITY           SKY/WX    TMP DP  RH WIND       PRES   REMARKS
ABERDEEN       CLOUDY    58  47  66 S14       29.56S
WATERTOWN      CLOUDY    57  50  77 S16       29.64R
BROOKINGS      PTSUNNY   60  48  64 S23       29.65F
SISSETON         N/A     58  51  78 S21       29.60F
$$

SDZ017-020-022-023-036>040-048>070-192300-
SOUTHEAST SOUTH DAKOTA

CITY           SKY/WX    TMP DP  RH WIND       PRES   REMARKS
SIOUX FALLS    CLOUDY    62  51  67 S21G30    29.70S
HURON          CLOUDY    62  50  64 S20G26    29.58S
CHAMBERLAIN    CLOUDY    69  47  45 S9G20     29.56R
MITCHELL       CLOUDY    63  51  65 S29G37    29.60F
YANKTON        CLOUDY    64  48  55 S15G26    29.68R
$$

ABBREVIATIONS USED IN REMARKS
   TC - TEMPERATURE IN CELSIUS
  WCI - WIND CHILL INDEX
   HX - HEAT INDEX
  VSB - VISIBILITY





USA.gov is the U.S. government's official web portal to all federal, state and local government web resources and services.